Hourly Data Report for October 20, 2014

All times are specified in Local Standard Time (LST). Add 1 hour to adjust for Daylight Saving Time where and when it is observed.

BATHURST A
NEW BRUNSWICK

47°37'47.000" N
65°44'20.000" W
58.80 m
8100505
71574
ZBF

Download Data

Hourly Data (October 2014)
Hourly Data Report for October 20, 2014
Temp Definition
°C
Dew Point Temp Definition
°C
Rel Hum Definition
%
Wind Dir Definition
10's deg

Wind Spd Definition
km/h
Visibility Definition
km
Stn Press Definition
kPa
Hmdx Definition


Wind Chill Definition


Weather Definition


TIME
00:00 Legend Double Dagger 1.7 -0.4 86 26 8 24.1 99.64     LegendNANA
01:00 Legend Double Dagger 4.0 -0.2 74 30 10 24.1 99.63     LegendNANA
02:00 Legend Double Dagger 4.2 -0.8 70 30 17 24.1 99.63     Cloudy
03:00 Legend Double Dagger 3.7 -0.9 72 30 17 24.1 99.55     LegendNANA
04:00 Legend Double Dagger 3.2 -1.0 74 30 14 24.1 99.54     LegendNANA
05:00 Legend Double Dagger 2.9 -1.3 74 29 17 24.1 99.54     Cloudy
06:00 Legend Double Dagger 2.5 -1.7 74 28 14 24.1 99.59     LegendNANA
07:00 Legend Double Dagger 2.3 -1.7 75 27 20 24.1 99.61     LegendNANA
08:00 Legend Double Dagger 2.8 -1.9 71 28 20 24.1 99.64     Mainly Clear
09:00 Legend Double Dagger 4.0 -2.0 65 28 19 24.1 99.68     LegendNANA
10:00 Legend Double Dagger 4.1 -3.0 60 28 36 24.1 99.73     LegendNANA
11:00 Legend Double Dagger 4.8 -2.8 58 29 27 24.1 99.77     Mostly Cloudy
12:00 Legend Double Dagger 5.0 -3.3 55 28 28 24.1 99.76     LegendNANA
13:00 Legend Double Dagger 5.7 -3.7 51 28 37 24.1 99.73     LegendNANA
14:00 Legend Double Dagger 5.9 -3.7 50 28 31 24.1 99.77     Mostly Cloudy
15:00 Legend Double Dagger 5.5 -3.8 51 29 30 24.1 99.83     LegendNANA
16:00 Legend Double Dagger 5.5 -3.6 52 27 29 24.1 99.92     LegendNANA
17:00 Legend Double Dagger 4.8 -3.5 55 28 15 24.1 100.05     Mostly Cloudy
18:00 Legend Double Dagger 4.0 -4.0 56 27 16 24.1 100.14     LegendNANA
19:00 Legend Double Dagger 4.1 -4.4 54 27 22 24.1 100.21     LegendNANA
20:00 Legend Double Dagger 3.8 -4.4 55 28 25 24.1 100.28     Clear
21:00 Legend Double Dagger 3.0 -4.5 58 27 17 24.1 100.34     LegendNANA
22:00 Legend Double Dagger 2.8 -4.4 59 27 28 24.1 100.37     LegendNANA
23:00 Legend Double Dagger 2.3 -4.5 61 28 17 24.1 100.42     Clear

Notes on Data Quality.

Legend

  • E = Estimated
  • M = Missing
  • NA = Not Available
  • ‡ = Partner data that is not subject to review by the National Climate Archives
Date modified: